Location: Banff
(51.1667°N, 115.5667°W)
Time: 16:09:41
(UTC+00:00)

Vanguard 1 Rocket - Visible Passes

Search period start: 26 November 2020 00:00
Search period end: 06 December 2020 00:00
Orbit: 656 x 4221 km, 34.3° (Epoch: 25 November)

Date Brightness Start Highest point End Pass type
(mag) Time Alt. Az. Time Alt. Az. Time Alt. Az.
26 Nov 11.0 08:53:23 29° SE 08:53:23 29° SE 09:03:42 10° E visible
26 Nov 10.4 11:10:40 36° SSW 11:16:47 43° S 11:29:48 10° ESE visible
26 Nov 10.2 13:27:58 11° WSW 13:43:33 36° SSW 13:53:08 10° SE visible
27 Nov 11.4 07:46:11 17° ESE 07:46:11 17° ESE 07:50:37 10° E visible
27 Nov 10.6 10:03:27 41° SSE 10:03:47 41° SSE 10:18:41 10° ESE visible
27 Nov 10.3 12:20:44 25° WSW 12:31:39 42° S 12:43:11 10° SE visible
27 Nov 10.4 14:44:50 10° W 14:56:55 25° SW 15:04:41 10° SSE visible
28 Nov 10.9 08:56:12 32° SE 08:56:12 32° SE 09:06:52 10° E visible
28 Nov 10.4 11:13:29 39° SSW 11:19:04 45° S 11:32:40 10° ESE visible
28 Nov 10.3 13:30:46 12° W 13:45:48 34° SSW 13:55:42 10° SSE visible
29 Nov 11.3 07:48:56 19° ESE 07:48:56 19° ESE 07:54:06 10° E visible
29 Nov 10.5 10:06:12 44° SSE 10:06:12 44° SSE 10:21:35 10° ESE visible
29 Nov 10.3 12:23:28 27° WSW 12:33:56 42° SSW 12:45:54 10° SE visible
29 Nov 10.6 14:47:25 10° W 14:58:57 22° SW 15:06:42 10° S visible
30 Nov 10.8 08:58:54 35° SE 08:58:54 35° SE 09:09:50 10° E visible
30 Nov 10.4 11:16:11 41° SSW 11:21:19 46° S 11:35:27 10° ESE visible
30 Nov 10.4 13:33:27 13° W 13:47:55 32° SSW 13:58:06 10° SSE visible
01 Dec 11.3 07:51:35 21° ESE 07:51:35 21° ESE 07:57:15 10° E visible
01 Dec 10.5 10:08:51 47° S 10:08:51 47° S 10:24:24 10° ESE visible
01 Dec 10.4 12:26:08 28° WSW 12:36:06 41° SSW 12:48:30 10° SE visible
01 Dec 10.7 14:50:16 10° W 15:00:51 19° SW 15:08:21 10° S visible
02 Dec11.706:44:15E06:44:15E06:01:27SSWvisible
02 Dec 10.8 09:01:32 37° SE 09:01:32 37° SE 09:12:40 10° E visible
02 Dec 10.4 11:18:48 42° SW 11:23:29 46° S 11:38:08 10° SE visible
02 Dec 10.5 13:36:04 14° W 13:49:54 29° SW 14:00:18 10° SSE visible
03 Dec 11.2 07:54:11 23° ESE 07:54:11 23° ESE 08:00:10 10° E visible
03 Dec 10.5 10:11:28 48° S 10:11:28 48° S 10:27:07 10° ESE visible
03 Dec 10.5 12:28:44 28° WSW 12:38:09 39° SSW 12:50:56 10° SE visible
03 Dec 10.9 14:53:35 10° W 15:02:35 16° SW 15:09:26 10° SSW visible
04 Dec 11.7 06:46:52 10° E 06:46:52 10° E 06:04:14 - SSW visible
04 Dec 10.8 09:04:08 38° SE 09:04:08 38° SE 09:15:24 10° ESE visible
04 Dec 10.4 11:21:24 43° SW 11:25:33 45° SSW 11:40:42 10° SE visible
04 Dec 10.7 13:38:41 14° W 13:51:44 26° SW 14:02:13 10° S visible
05 Dec 11.2 07:56:48 24° ESE 07:56:48 24° ESE 08:02:56 10° E visible
05 Dec 10.5 10:14:05 48° S 10:14:05 48° S 10:29:43 10° ESE visible
05 Dec 10.6 12:31:21 28° WSW 12:40:05 36° SSW 12:53:11 10° SSE visible
05 Dec 11.1 14:57:50 10° WSW 15:04:10 13° WSW 15:09:29 10° SW visible
